Regional Weather Roundup
Issued by NWS Wakefield, VA

Home | Current Version | Previous Version | Graphics & Text | Print | Product List | Glossary On
Versions: 1 2 3 4 5 6 7 8 9 10 11 12 13 14 15 16 17 18 19 20 21 22 23 24 25 26 27 28 29 30 31 32 33 34 35 36 37 38 39 40 41 42 43 44 45 46 47 48 49 50
368
ASUS41 KAKQ 261515
RWRAKQ

REGIONAL WEATHER ROUNDUP
NATIONAL WEATHER SERVICE WAKEFIELD VA
1100 AM EDT THU MAY 26 2016

Note: "fair" indicates few or no clouds below 12,000 feet with no
significant weather and/or obstructions to visibility. * = Denotes
station may not report precipitation (e.g., rain,snow,etc.),
thunder or fog.

VAZ042-051-052>054-056-261600-
NORTHERN VIRGINIA

CITY           SKY/WX    TMP DP  RH WIND       PRES   REMARKS
WASH NATIONAL  CLOUDY    77  61  57 S10       30.10F
DULLES         FAIR      79  60  52 S5        30.10F
FORT BELVOIR   FAIR      79  63  56 VRB3      30.10F
QUANTICO       FAIR      74  65  73 S7        30.11F
FREDERICKSBRG* NOT AVBL
STAFFORD*      FAIR      80  63  56 CALM      30.15S
WARRENTON      FAIR      81  58  45 S5        30.11S
CULPEPER*      FAIR      81  65  58 CALM      30.11F
MANASSAS*      SUNNY     79  63  57 S5        30.10F
LEESBURG*      FAIR      82  64  54 S6        30.11S
WINCHESTER     FAIR      79  63  57 S6        30.11S
FRONT ROYAL*   FAIR      79  61  53 S7        30.11S
LURAY*         PTSUNNY   73  63  68 SW8       30.14S
$$

VAZ048-049-060>072-079>083-261600-
CENTRAL AND SOUTH CENTRAL VIRGINIA

CITY           SKY/WX    TMP DP  RH WIND       PRES   REMARKS
RICHMOND       PTSUNNY   80  65  59 S9        30.12F
CHESTERFIELD*  FAIR      82  59  44 W9        30.14F
PETERSBURG*    FAIR      83  64  52 SW7       30.14
HANOVER        FAIR      82  62  50 VRB7      30.13F
TAPPAHANNOCK*  FAIR      83  63  51 S7        30.12F
QUINTON*       FAIR      80  65  61 S6        30.13S
CHARLOTTSVILLE FAIR      82  62  50 S6        30.12F
GORDONSVILLE*  FAIR      82  64  53 SW7       30.11S
ORANGE*        FAIR      82  63  51 SW5       30.13S
LOUISA*        FAIR      84  66  54 SW3       30.11S
BUMPASS*       FAIR      80  64  58 SW6       30.12S
FARMVILLE*     FAIR      82  62  50 SW7       30.12F
CREWE*         FAIR      82  64  53 SW8       30.13F
FORT PICKETT*  NOT AVBL
CHASE CITY*    FAIR      81  60  49 CALM      30.15F
CLARKSVILLE*   FAIR      81  64  57 S6        30.15F
SOUTH HILL*    FAIR      80  65  60 S7        30.20F
LAWRENCEVILLE* FAIR      81  64  55 W5        30.15S
EMPORIA*       FAIR      81  64  57 SE5       30.16F
$$

VAZ088>098-261600-
SOUTHEAST VIRGINIA

CITY           SKY/WX    TMP DP  RH WIND       PRES   REMARKS
NORFOLK        FAIR      81  64  56 S8        30.15F
VIRGINIA BEACH FAIR      85  64  49 SW7       30.15S
NORFOLK NAVAL  FAIR      82  63  52 S8        30.16F
WEST POINT*    FAIR      81  63  54 S5        30.14F
SALUDA*        FAIR      83  66  56 S5        30.12F
NEWPORT NEWS   FAIR      80  65  59 SW7       30.14F
LANGLEY AFB    MOSUNNY   80  66  62 S9        30.14F
FORT EUSTIS    FAIR      78  67  69 S6        30.12F
WILLIAMSBURG*  FAIR      81  70  69 SE3       30.14F
HR EXEC AP*    FAIR      82  66  57 SW5       30.17F
FRANKLIN*      FAIR      80  64  57 SW6       30.16S
US460-WAKEFLD  FAIR      81  64  56 VRB6      30.14F
$$

VAZ020-022-025-037-045-261600-
WEST CENTRAL AND SOUTHWEST VIRGINIA

CITY           SKY/WX    TMP DP  RH WIND       PRES   REMARKS
STAUNTON*      PTSUNNY   73  62  69 SW3       30.18S
WAYNESBORO*    CLOUDY    72  60  67 CALM      30.17S
HOT SPRINGS VA PTSUNNY   68  58  69 SW9       30.26S
LYNCHBURG      FAIR      78  62  57 W7        30.17F
DANVILLE       FAIR      78  62  57 VRB3      30.15F
SOUTH BOSTON*  FAIR      81  62  52 S6        30.15S
MARTINSVILLE   CLOUDY    69  64  84 CALM      30.19F
ROANOKE        PTSUNNY   71  64  78 CALM      30.19F
BLACKSBURG     PTSUNNY   69  64  83 CALM      30.24F
DUBLIN*        FAIR      74  65  74 CALM      30.23F
MARION*        PTSUNNY   72  60  65 W14G21    30.26S
HILLSVILLE*    CLOUDY    72  63  74 S5        30.24S
RICHLANDS*     PTSUNNY   71  55  56 SW7       30.24S
WISE*          CLOUDY    70  54  56 W6        30.26R
ABINGDON*      CLOUDY    75  62  65 W8        30.23S
$$

MDZ021>025-VAZ099-100-261600-
SOUTHERN MARYLAND AND THE DELMARVA PENINSULA

CITY           SKY/WX    TMP DP  RH WIND       PRES   REMARKS
PATUXENT RIVER PTSUNNY   79  64  60 VRB6      30.10F
BAY BRIDGE APT MOSUNNY   79  59  50 SE9       30.10F
LEONARDTOWN    SUNNY     81  61  50 W6        30.12F
DOVER          SUNNY     82  65  56 VRB3      30.10F
GEORGETOWN     SUNNY     85  57  38 S10       30.12F
EASTON         MOSUNNY   84  66  54 SW8       30.14F
CAMBRIDGE      SUNNY     82  61  47 S5        30.11F
SALISBURY      SUNNY     83  62  49 VRB5      30.12F
OCEAN CITY     MOSUNNY   76  66  71 S7        30.13F
WALLOPS ISLAND PTSUNNY   80  67  64 S7        30.14F
ACCOMACK*      FAIR      82  61  47 S6        30.14F
$$

NCZ012>017-030>032-261600-
NORTH CENTRAL AND EASTERN NORTH CAROLINA

CITY           SKY/WX    TMP DP  RH WIND       PRES   REMARKS
ROANOKE RAPIDS FAIR      81  64  57 S7        30.16F
RALEIGH        MOSUNNY   81  64  56 SW6       30.17F
ELIZABETH CITY SUNNY     79  66  64 S9        30.17F
AHOSKIE*       NOT AVBL
EDENTON*       NOT AVBL
CURRITUCK*     SUNNY     80  65  59 S6        30.18S
KILL DEVIL HLS SUNNY     84  64  50 SW7       30.17F
MANTEO         NOT AVBL
CAPE HATTERAS  SUNNY     75  66  73 SW9       30.21F
TARBORO*       FAIR      81  65  59 SW5       30.17F
GOLDSBORO      SUNNY     82  66  60 SW7       30.17F
WASHINGTON     SUNNY     80  65  59 W7        30.18F
GREENVILLE     SUNNY     81  66  61 SW7       30.19S
NEW BERN       SUNNY     82  64  54 SW7       30.21F
WILMINGTON     PTSUNNY   80  65  59 SW8       30.21S
$$

VAZ048-261600-
ELSEWHERE

CITY           SKY/WX    TMP DP  RH WIND       PRES   REMARKS
HARRISBURG PA  MOSUNNY   77  58  51 CALM      30.09F
BALTIMORE      PTSUNNY   83  59  44 SW6       30.09F
ANNAPOLIS      MOSUNNY   71  64  78 SE10      30.10F HAZE
ANDREWS AFB    SUNNY     81  63  54 S8        30.09F
PHILADELPHIA   PTSUNNY   80  59  48 VRB5      30.12S
HENDERSON NC   SUNNY     78  63  60 SW5       30.16F
GREENSBORO     PTSUNNY   79  62  56 SW5       30.17F
ROCKY MOUNT    SUNNY     81  65  58 S8        30.17F
$$

VAZ100-261600-
MARINE

STATION/POSITION TIME  TEMP    WIND        PRES    WAVE   SWELL
                       AIR SEA DIR/SP/G            HT/PER HT/PER
                 (UTC) (F)     (DEG/KT/KT) (MB)    (FT/S) (FT/S)
BRANDYWINE LGT   1400   70     200/  5/  5 1020.5F
CAPE MAY NJ      1400   76 65  220/  5/  6 1020.1F
LEWES DE         1400   81 60  230/  4/  6 1020.1F
15NM E FENWICK I 1450   62 59              1020.5F   2/ 8
OCEAN-CITY-INLET 1400   65 63  200/  4/  5 1020.9F
WACHAPREAGUE VA  1400   77 72  180/  6/  7 1020.4F
THOMAS POINT MD  1500   70 65  180/  9/  9 1020.8S
GOOSES REEF MD   1500   70 67  170/  8/ 10 1020.4F   1
COVE POINT MD    1400   68     170/ 11/ 12 1020.5F
SOLOMONS ISLAND  1400   73 64  100/  6/  7   N/A
BISHOPS HEAD MD  1400   72 70  180/  5/  5 1020.6F
PINEY POINT MD   1400          140/  6/  7   N/A
POTOMAC MD       1500   69 69  130/  6/  8 1018.8F   0
CAMBRIDGE MD     1400   80 64  180/  4/  6 1019.1F
LEWISETTA VA     1400   77 69  230/  4/  5 1019.6F
RAPPAHANNOCK LGT 1400          170/  9/  9 1021.5F
STINGRAY PT      1400   71 68  150/  4/  4 1021.2F   0
YORK RVR RNG VA  1400   72     210/  5/  6 1020.3F
YORKTOWN VA      1400   76 68  220/  5/  8 1020.5F
JAMESTOWN VA     1500   76 71  120/  4/  4   N/A     0
DOMINION TERM VA 1400   72     220/  6/  7 1021.2F
KIPTOPEKE VA     1400      66  260/  4/  5   N/A
CHES BAY BRIDGE  1400   73 67  200/  8/  8 1021.1F
CAPE HENRY VA    1400   77     210/  6/ 12   N/A
CHESAPEAKE LGHT  1400   69     210/ 12/ 13 1022.1F
WILLOUBY STN VA  1400   71     250/  4/  4 1022.1F
CAPE HENRY BUOY  1412      66                N/A     2/ 9
1ST LANDING BUOY 1500   71 67  210/  4/  4 1020.8F   1/ 4
CAPE CHARLES BUO 1456      63                N/A     2/ 8   2/ 8
OFFSHORE WE BUOY 1451      61                N/A     2/ 8   2/ 8
64NM E OF VA BCH 1450   63 58  210/  8/ 10 1021.9F   2/ 8   2/ 8
DUCK PIER NC     1400   74 60  220/ 11/ 12 1021.6F
44100 DUCK FRF   1454      66                N/A     2/ 8
44056 DUCK FRF   1411      63                N/A     2/ 7
OREGON INLET NC  1400   72 71  190/ 12/ 14 1022.7F
HATTERAS NC      1400   76 71  210/  5/  7 1023.0F
DIAMOND SHLS NC  1450   72 70  240/  6/  6 1023.3F   2/ 8   2/ 8
CAPE LOOKOUT C1F1C2F2C3F3C4F4C5F5C6F6C7F7C8M1C9!



USA.gov is the U.S. government's official web portal to all federal, state and local government web resources and services.